Total_Precipitation_Accumulation
0.02 0.09 0.23 0.33 0.59 1.18 1.18 0.84 0.46 0.29 0.28 0.35 0.39 0.37 0.47 0.55 0.64 1.05 0.62 0.35 0.20 0.20 0.35 0.45 0.46 0.40 0.39 0.43 0.47 0.46 0.41 0.37 0.42 0.43 0.44 0.46 0.47 0.44 0.45 0.52 0.55 0.61 0.62 0.58 0.60 0.61 0.55 0.43 0.38
0.02 0.09 0.24 0.33 0.84 1.44 1.15 0.79 0.43 0.31 0.24 0.36 0.47 0.41 0.55 0.50 0.25 0.30 0.40 0.32 0.16 0.13 0.24 0.25 0.29 0.29 0.28 0.29 0.32 0.40 0.41 0.39 0.42 0.48 0.56 0.60 0.62 0.56 0.53 0.54 0.54 0.53 0.50 0.46 0.51 0.51 0.42 0.36 0.33
0.02 0.08 0.21 0.34 0.85 1.03 0.80 0.55 0.32 0.27 0.20 0.25 0.39 0.33 0.44 0.56 0.34 0.31 0.34 0.27 0.18 0.15 0.21 0.26 0.23 0.21 0.23 0.23 0.25 0.36 0.44 0.45 0.45 0.50 0.56 0.62 0.72 0.68 0.61 0.57 0.57 0.51 0.47 0.42 0.41 0.38 0.32 0.29 0.32
0.01 0.06 0.16 0.30 0.56 0.58 0.43 0.37 0.28 0.27 0.24 0.22 0.33 0.43 0.55 0.44 0.37 0.39 0.35 0.34 0.23 0.18 0.19 0.20 0.24 0.23 0.23 0.22 0.24 0.30 0.41 0.44 0.45 0.47 0.54 0.57 0.66 0.69 0.61 0.54 0.55 0.51 0.44 0.37 0.30 0.27 0.28 0.29 0.34
0.01 0.05 0.16 0.25 0.32 0.39 0.36 0.32 0.26 0.28 0.25 0.29 0.40 0.68 0.90 0.62 0.43 0.42 0.42 0.41 0.33 0.24 0.22 0.19 0.23 0.23 0.24 0.23 0.25 0.28 0.32 0.38 0.38 0.36 0.41 0.48 0.54 0.62 0.57 0.54 0.52 0.45 0.39 0.33 0.27 0.27 0.31 0.36 0.39
0.01 0.03 0.12 0.15 0.20 0.26 0.29 0.24 0.25 0.23 0.26 0.38 0.56 0.81 0.89 0.71 0.64 0.67 0.70 0.61 0.59 0.43 0.31 0.28 0.29 0.26 0.24 0.24 0.26 0.28 0.29 0.30 0.33 0.30 0.33 0.40 0.45 0.48 0.50 0.48 0.45 0.38 0.33 0.30 0.28 0.31 0.35 0.39 0.41
0.01 0.02 0.05 0.08 0.12 0.18 0.22 0.20 0.21 0.22 0.31 0.48 0.66 0.96 0.97 0.97 0.93 0.88 1.04 1.13 0.94 0.68 0.50 0.42 0.36 0.29 0.29 0.30 0.30 0.28 0.28 0.31 0.32 0.31 0.34 0.43 0.44 0.48 0.50 0.48 0.43 0.42 0.39 0.33 0.29 0.30 0.33 0.36 0.37
0.01 0.02 0.03 0.04 0.07 0.14 0.14 0.16 0.17 0.22 0.36 0.45 0.61 0.99 1.19 1.03 1.07 1.12 1.30 1.44 1.36 0.96 0.74 0.58 0.55 0.51 0.43 0.35 0.35 0.36 0.35 0.37 0.38 0.38 0.42 0.50 0.50 0.50 0.55 0.51 0.51 0.53 0.53 0.46 0.44 0.37 0.34 0.36 0.37
0.01 0.02 0.03 0.03 0.04 0.09 0.08 0.14 0.18 0.16 0.22 0.39 0.57 0.85 0.92 0.85 0.96 1.08 1.29 1.46 1.66 1.43 1.02 0.80 0.72 0.69 0.66 0.54 0.48 0.53 0.54 0.55 0.54 0.60 0.65 0.75 0.77 0.70 0.83 0.76 0.81 0.74 0.76 0.74 0.72 0.63 0.55 0.51 0.48
0.00 0.01 0.02 0.02 0.03 0.04 0.07 0.11 0.17 0.14 0.34 0.61 0.73 0.82 0.73 0.85 0.95 1.14 1.28 1.35 1.51 1.61 1.18 1.02 0.84 0.74 0.75 0.85 1.00 0.99 0.84 0.88 0.95 1.08 1.16 1.40 1.39 1.31 1.04 1.07 1.22 1.27 1.38 1.32 1.28 1.22 0.96 0.82 0.75
0.00 0.01 0.01 0.02 0.01 0.02 0.07 0.07 0.13 0.16 0.49 0.96 1.11 1.11 1.00 0.96 1.09 1.33 1.54 1.57 1.46 1.53 1.28 1.16 1.13 1.06 0.96 1.10 1.25 1.29 1.22 1.28 1.31 1.36 1.46 1.56 1.39 1.30 1.21 1.27 1.49 1.60 1.72 1.67 1.83 1.89 1.57 1.52 1.52
0.00 0.00 0.01 0.01 0.01 0.03 0.05 0.06 0.11 0.20 0.49 0.79 1.07 1.04 1.16 1.12 1.20 1.44 1.74 1.89 1.89 1.98 1.69 1.52 1.54 1.39 1.29 1.27 1.39 1.41 1.41 1.36 1.40 1.55 1.49 1.61 1.71 1.66 1.62 1.73 1.74 1.83 1.99 2.32 2.15 2.32 2.20 2.03 1.90
0.00 0.00 0.00 0.01 0.01 0.02 0.05 0.11 0.13 0.23 0.36 0.57 0.82 0.82 0.87 1.16 1.53 1.90 2.24 2.23 2.37 2.52 2.43 2.13 1.88 1.68 1.62 1.73 1.70 1.61 1.62 1.60 1.69 1.85 1.80 1.81 1.98 2.01 2.04 2.00 2.01 1.85 2.02 2.37 2.48 2.36 2.57 2.62 2.41
0.00 0.00 0.00 0.01 0.02 0.03 0.06 0.13 0.20 0.33 0.43 0.50 0.76 0.99 1.03 1.37 1.70 2.25 2.88 2.77 2.54 2.72 2.80 2.59 2.36 2.18 2.14 2.25 2.29 2.14 1.93 2.04 2.11 2.09 1.96 2.00 2.22 2.44 2.48 2.32 2.26 2.12 2.13 2.34 2.47 2.50 2.99 2.88 2.73
0.00 0.01 0.02 0.05 0.06 0.09 0.12 0.28 0.42 0.47 0.45 0.54 0.83 1.16 1.36 1.54 1.88 2.21 2.57 2.88 3.01 3.10 3.02 2.95 2.87 2.75 2.77 2.71 2.64 2.44 2.35 2.20 2.21 2.27 2.31 2.28 2.29 2.53 2.59 2.58 2.44 2.36 2.31 2.46 2.51 2.71 2.97 2.70 2.58
0.01 0.02 0.05 0.09 0.09 0.11 0.18 0.52 0.54 0.43 0.44 0.78 0.98 1.33 1.59 1.69 1.97 2.37 2.70 3.19 3.42 3.45 3.42 3.39 3.22 3.22 3.20 3.13 2.99 2.82 2.68 2.39 2.19 2.20 2.35 2.37 2.39 2.52 2.62 2.47 2.36 2.56 2.64 2.72 2.88 2.96 2.99 2.86 2.76
0.03 0.04 0.07 0.10 0.11 0.11 0.18 0.40 0.52 0.47 0.62 0.90 1.18 1.49 1.79 2.06 2.52 2.98 3.21 3.33 3.67 3.95 4.06 4.02 3.96 3.74 3.48 3.39 3.36 3.38 3.29 2.95 2.58 2.47 2.46 2.46 2.32 2.35 2.53 2.42 2.50 2.66 2.76 2.80 2.57 2.96 2.95 2.97 2.89
0.04 0.05 0.10 0.14 0.13 0.14 0.22 0.37 0.48 0.55 0.75 1.10 1.49 1.76 2.03 2.43 2.93 3.27 3.53 3.87 4.01 4.21 4.57 4.43 4.31 4.26 4.18 4.06 3.79 3.76 3.53 3.21 3.00 2.85 2.83 2.64 2.49 2.47 2.65 2.51 2.57 2.69 2.81 2.83 2.84 3.04 3.01 2.85 2.82
0.05 0.07 0.12 0.15 0.14 0.17 0.33 0.51 0.55 0.72 0.99 1.26 1.54 1.83 2.17 2.46 2.88 3.33 3.39 3.59 3.88 4.44 4.77 4.85 4.97 4.85 4.58 4.16 3.73 3.53 3.43 3.38 3.17 2.92 2.68 2.59 2.53 2.63 2.87 2.71 2.85 2.82 2.68 2.69 2.84 3.02 2.85 2.62 2.74
0.06 0.09 0.13 0.15 0.14 0.15 0.30 0.49 0.61 0.95 1.22 1.27 1.39 1.54 1.75 2.18 2.58 2.91 3.06 3.11 3.47 4.04 4.47 4.60 4.35 4.22 4.07 3.81 3.67 3.64 3.81 3.49 3.16 2.95 2.71 2.51 2.49 2.58 2.52 2.63 2.51 2.56 2.70 2.69 2.71 2.91 2.75 2.37 2.50
0.05 0.07 0.11 0.16 0.15 0.20 0.31 0.62 0.81 1.06 1.19 1.21 1.28 1.39 1.54 1.89 2.21 2.51 2.59 2.69 2.91 3.03 3.29 3.46 3.61 3.50 3.38 3.35 3.33 3.36 3.53 3.26 2.94 2.72 2.59 2.36 2.25 2.22 2.24 2.26 2.35 2.61 2.64 2.63 2.69 2.69 2.55 2.25 2.22
0.06 0.07 0.06 0.08 0.15 0.27 0.41 0.94 1.16 1.09 1.14 1.27 1.28 1.31 1.53 1.86 1.83 1.92 2.10 2.28 2.56 2.67 2.84 2.92 2.94 3.03 3.04 3.08 2.97 2.80 2.69 2.55 2.41 2.39 2.33 2.31 2.20 2.10 2.05 2.05 2.13 2.22 2.22 2.30 2.12 2.22 2.34 2.38 2.18
0.05 0.05 0.06 0.09 0.18 0.29 0.41 0.73 1.11 1.42 1.48 1.26 1.19 1.14 1.35 1.51 1.42 1.41 1.57 1.71 1.91 2.06 2.29 2.46 2.56 2.62 2.73 2.76 2.64 2.60 2.41 2.38 2.36 2.29 2.27 2.18 2.10 2.04 1.97 1.91 1.89 1.84 1.85 1.99 1.97 2.06 2.09 2.09 2.05
0.04 0.06 0.12 0.23 0.41 0.64 0.54 0.67 1.06 1.41 1.64 1.34 1.16 1.10 1.20 1.17 1.16 1.28 1.38 1.43 1.56 1.78 1.95 2.11 2.25 2.28 2.40 2.44 2.42 2.36 2.30 2.29 2.22 2.15 2.12 2.06 2.03 1.91 1.84 1.83 1.84 1.77 1.77 1.82 1.88 1.95 1.90 1.92 1.98
0.06 0.13 0.45 0.81 1.10 1.12 0.72 0.76 1.12 1.12 1.14 1.14 1.11 1.14 1.13 1.04 0.98 1.00 1.09 1.21 1.37 1.56 1.67 1.74 1.88 1.96 1.97 2.00 2.04 2.00 2.04 2.13 1.96 1.84 1.85 1.80 1.64 1.52 1.52 1.53 1.62 1.62 1.67 1.69 1.74 1.78 1.78 1.86 1.94
0.10 0.15 0.50 0.77 0.82 0.92 0.80 1.07 1.40 1.11 1.01 0.95 1.01 1.09 1.05 0.90 0.84 0.85 0.96 1.01 1.08 1.22 1.39 1.46 1.60 1.72 1.85 1.86 1.83 1.79 1.77 1.77 1.62 1.64 1.60 1.54 1.33 1.22 1.35 1.50 1.56 1.59 1.62 1.59 1.70 1.61 1.59 1.73 1.79
0.15 0.17 0.23 0.44 0.49 0.70 0.89 1.17 1.33 1.01 0.97 1.06 1.17 1.16 1.07 0.85 0.70 0.67 0.74 0.80 0.79 0.84 0.96 1.14 1.44 1.58 1.66 1.70 1.66 1.56 1.51 1.50 1.44 1.48 1.55 1.44 1.37 1.25 1.33 1.41 1.52 1.57 1.66 1.70 1.73 1.61 1.66 1.86 1.83
0.15 0.15 0.19 0.36 0.53 0.74 0.86 1.21 1.48 1.32 1.26 1.24 1.29 1.11 0.83 0.66 0.54 0.51 0.54 0.55 0.59 0.64 0.75 0.91 1.09 1.19 1.28 1.41 1.44 1.27 1.35 1.42 1.40 1.39 1.31 1.32 1.33 1.33 1.30 1.33 1.35 1.36 1.41 1.52 1.57 1.52 1.63 1.85 1.82
0.19 0.21 0.28 0.40 0.43 0.65 0.99 1.18 1.11 1.10 1.11 1.17 1.14 0.93 0.67 0.55 0.46 0.47 0.49 0.52 0.55 0.59 0.70 0.83 0.98 1.09 1.12 1.19 1.26 1.22 1.21 1.29 1.34 1.31 1.23 1.24 1.25 1.28 1.24 1.23 1.21 1.20 1.14 1.18 1.31 1.36 1.53 1.56 1.56
0.17 0.19 0.28 0.42 0.41 0.46 0.69 0.90 0.62 0.65 0.71 0.78 0.80 0.67 0.55 0.54 0.50 0.55 0.58 0.57 0.57 0.66 0.74 0.81 0.93 1.04 1.10 1.20 1.31 1.37 1.32 1.30 1.30 1.27 1.16 1.11 1.06 1.09 1.11 1.12 1.08 1.02 1.06 1.13 1.17 1.25 1.39 1.46 1.44